TIROS 6 DEB, 29006

Orbit data source: Space-Track

TIROS 6 DEB, 29006 is space debris in LEO originally from a launch on Tue, 18 Sep 1962 UTC launched from the Air Force Eastern Test Range (AFETR). Debris objects in space refer to the collection of defunct objects orbiting the Earth. Examples of debris include non-operational satellites, rocket bodies, and fragments generated from explosions, collisions, or faulty payload assembly.

Loading next visibility...
Identifier
29006, 1962-047F
Orbit
LEO
Country
Flag of USUS
Related business
Manufacturer
Unknown
Mission
Spacecraft
Bus & Motor
Unknown
Mass
Unknown
Launch date (UTC)
1962-09-18 (63 years ago)
Launch vehicle
Unknown
Launch site
Air Force Eastern Test Range (AFETR)
Object type
Payload
Rocket body
Debris
Shape & HBR
Unknown
Radar Cross Section
Small (<0.1 m²)

Expand to show TLE details & history
Last TLE update: 4 days ago

TLE from 4 days ago
0 TIROS 6 DEB
1 29006U 62047F   25257.77474085  .00000490  00000-0  80949-4 0  9996
2 29006  58.3100 346.3709 0008733  19.5441 340.5936 14.85272366660706
Epoch: 2025-09-14T18:35Z
TLE epoch observation values (Epoch: 2025-09-14T18:35:37.609Z)
Latitude
0.00004°
Longitude
73.4753°
Altitude
608.381 km
Speed
7.559 km/s
True Right ascension
23h 05m 29s
True Declination
0° 00' 00"
Sunlit
Object was in full shadow at epoch
Visualization orbit readout
Latitude
Unknown
Longitude
Unknown
Altitude
Unknown
Speed
Unknown
Apparent Right ascension
Unknown
Apparent Declination
Unknown
Sunlit
N/A
Visualization observer readout
Local Sidereal Time
20:51:00
Azimuth
Unknown
Elevation
Unknown
Doppler factor
Unknown
Orbital elements
Apogee altitude
618.298 km
Perigee altitude
606.089 km
Semi-major axis
6,990.33 km
Eccentricity
0.00087
Inclination
58.31°
RAAN
346.3709°
Arg. of periapsis
19.5441°
True anomaly
340.56031°
Mean anomaly
340.5936°
Eccentric anomaly
340.57696°
Mean motion
3.71361 °/min
Orbital period
96.94 mins
BSTAR
0.000080949
Loading maneuver chart data...
Computing Atmospheric mass density...
Loading historical data...
Loading historical data...
Loading historical data...
Loading historical data...
Loading historical data...
Loading historical data...
Loading historical data...

Documentation

Showing up to 5 results
|